[[{"header":{"parameterUnit":"m.s-1","parameterCategory":1,"la1":30.2991,"la2":30.254,"lo1":-89.0895,"lo2":-89.0444,"dy":0.0017,"dx":0.0017,"nx":28,"ny":28,"refTime":"2023-09-27T21:00:00:Z","depth":0,"parameterNumber":2,"parameterNumberName":"U-component_of_WINDS"},"data":[0,0,0,0,0,0,0,0,0,0,0,0,0,0,0,0,0,0,0,0,0,0,0,0,0,0,0,0,0,0,0,0,0,0,0,0,0,0,0,0,0,0,0,0,0,0,0,0,0,0,0,0,0,0,0,0,0,0,-5.2061,-5.2062,0,-5.2127,-5.2128,-5.2128,-5.196,-5.1954,-5.1949,-5.1944,-5.2013,-5.2019,-5.2026,0,0,0,0,0,0,0,0,0,0,0,0,0,-5.1788,-5.1794,-5.2061,-5.2062,-5.2063,-5.2127,-5.2128,-5.2129,-5.1961,-5.1954,-5.1948,-5.1942,-5.201,-5.2018,-5.2026,0,0,0,0,0,0,0,0,0,0,0,0,0,-5.1886,-5.1796,-5.2061,-5.1986,-5.198,-5.2127,-5.2128,-5.2129,-5.1962,-5.1954,-5.1946,-5.1939,-5.2008,-5.2018,-5.2028,-5.2249,0,0,-5.2059,-5.2063,0,0,0,0,0,0,0,0,-5.1881,-5.1896,-5.1997,-5.1992,-5.1985,-5.2027,-5.2056,-5.2169,-5.1964,-5.1969,-5.1944,-5.1935,-5.2024,-5.2032,-5.2062,-5.2252,-5.2255,-5.2059,-5.2066,-5.207,-5.2073,0,0,0,0,0,0,0,-5.1874,-5.1892,-5.2087,-5.1998,-5.1991,-5.1949,-5.1955,-5.2077,-5.204,-5.1968,-5.1956,-5.1966,-5.2019,-5.2053,-5.2062,-5.2256,-5.2059,-5.2068,-5.2074,-5.2078,-5.2629,-5.2637,0,0,0,0,0,0,-5.1877,-5.1888,-5.2085,-5.2089,-5.1912,-5.1961,-5.1967,-5.2022,-5.2038,-5.2033,-5.1973,-5.1958,-5.2039,-5.2051,-5.2064,-5.2322,-5.207,-5.2079,-5.2085,-5.2621,-5.2631,-5.264,0,0,0,0,0,0,-5.1872,-5.1896,-5.2082,-5.1985,-5.2006,-5.1974,-5.2037,-5.2027,-5.206,-5.2042,-5.2034,-5.2014,-5.2033,-5.205,-5.2204,-5.2323,-5.2084,-5.2093,-5.261,-5.2624,-5.2636,-5.2843,0,0,0,0,0,0,-5.1865,-5.1895,-5.1979,-5.1988,-5.2011,-5.2222,-5.2045,-5.2034,-5.2078,-5.2059,-5.2078,-5.2074,-5.2028,-5.219,-5.2214,-5.2332,-5.2101,-5.26,-5.2616,-5.2631,-5.2825,-5.2861,-5.2892,0,0,0,0,0,-5.1855,-5.2036,-5.1984,-5.2009,-5.2116,-5.2229,-5.2242,-5.2186,-5.2089,-5.2172,-5.216,-5.2073,-5.2306,-5.2207,-5.2233,-5.2356,-5.2592,-5.2612,-5.263,-5.281,-5.2854,-5.2891,0,0,0,0,0,0,-5.2042,-5.2035,-5.1979,-5.2167,-5.22,-5.22,-5.2304,-5.2234,-5.2295,-5.2275,-5.2203,-5.2209,-5.2376,-5.2381,-5.2271,-5.257,-5.2432,-5.2458,-5.256,-5.2602,-5.2635,-5.2629,-5.2109,0,0,0,0,0,-5.2105,-5.2197,-5.2186,-5.2354,-5.2373,-5.2337,-5.2383,-5.2337,-5.2368,-5.2381,-5.238,-5.2414,-5.2494,-5.2548,-5.2621,-5.2826,-5.2826,-5.2923,-5.2956,-5.2984,-5.3006,-5.3113,-5.3155,-5.2703,-5.2703,-5.2703,0,0,-5.2236,-5.2244,-5.2307,-5.2391,-5.2411,-5.2508,-5.2349,-5.2458,-5.2529,-5.2398,-5.2542,-5.2543,-5.2575,-5.2755,-5.2834,-5.2765,-5.3131,-5.3009,-5.3031,-5.3038,-5.3137,-5.318,-5.3218,-5.2716,-5.2714,-5.2712,0,0,-5.2523,-5.254,-5.268,-5.2703,-5.2734,-5.2709,-5.2743,-5.2754,-5.2749,-5.2893,-5.2796,-5.2879,-5.302,-5.3046,-5.3078,-5.3375,-5.3297,-5.3401,-5.3575,-5.368,-5.3715,-5.3747,-5.3851,-5.3889,-5.3424,-5.3424,-5.3425,0,-5.2682,-5.2824,-5.2761,-5.2876,-5.2916,-5.2801,-5.2942,-5.2967,-5.3022,-5.3052,-5.2973,-5.3146,-5.316,-5.3343,-5.3415,-5.3446,-5.3481,-5.3398,-5.3715,-5.3746,-5.3774,-5.3873,-5.3913,-5.3437,-5.3435,-5.3434,-5.3433,0,-5.3017,-5.3116,-5.3226,-5.328,-5.3332,-5.3461,-5.3416,-5.3476,-5.3426,-5.3409,-5.3556,-5.3569,-5.3641,-5.3682,-5.3634,-5.3859,-5.3814,-5.3728,-5.3587,-5.3831,-5.3922,-5.396,-5.3454,-5.345,-5.3446,-5.3443,0,0,-5.3423,-5.344,-5.3481,-5.3504,-5.3531,-5.3606,-5.3729,-5.3799,-5.3852,-5.3894,-5.3993,-5.4115,-5.4034,-5.407,-5.4024,-5.4117,-5.4349,-5.4018,-5.4017,-5.4077,-5.4595,-5.4659,-5.4704,-5.4298,-5.4305,-5.4311,-5.4592,0,-5.3705,-5.3914,-5.3861,-5.4069,-5.4159,-5.4052,-5.4158,-5.4186,-5.4173,-5.4247,-5.4233,-5.4319,-5.4207,-5.4228,-5.4315,-5.4303,-5.4452,-5.4282,-5.4389,-5.4394,-5.4383,-5.4752,-5.4821,-5.5085,-5.4628,-5.4634,-5.4638,0,-5.4062,-5.4116,-5.4334,-5.4344,-5.438,-5.4476,-5.4536,-5.4609,-5.4638,-5.4622,-5.4663,-5.4599,-5.4718,-5.4579,-5.4743,-5.4628,-5.4669,-5.467,-5.4679,-5.4685,-5.453,-5.4767,-5.5169,-5.5208,-5.4694,-5.469,-5.4686,0,-5.4334,-5.4462,-5.4607,-5.4631,-5.4647,-5.4717,-5.4727,-5.4748,-5.4794,-5.4846,-5.4875,-5.4942,-5.4978,-5.503,-5.4985,-5.4888,-5.5156,-5.5013,-5.5145,-5.5147,-5.5205,-5.5202,-5.5617,-5.5236,-5.5235,-5.5234,-5.5233,0,-5.4654,-5.479,-5.473,-5.4819,-5.4969,-5.4906,-5.5056,-5.5053,-5.5073,-5.516,-5.5072,-5.5155,-5.5091,-5.5169,-5.5135,-5.5275,-5.5293,-5.5282,-5.5271,-5.5289,-5.529,-5.5314,-5.5293,-5.5245,-5.5242,-5.524,-5.5238,0,-5.4982,-5.4947,-5.5098,-5.5101,-5.5105,-5.5215,-5.5217,-5.53,-5.528,-5.5391,-5.5414,-5.5384,-5.5471,-5.5431,-5.5523,-5.55,-5.568,-5.5645,-5.567,-5.566,-5.5794,-5.5781,-5.6237,-5.6293,-5.5878,-5.5882,-5.5885,0,-5.5187,-5.5289,-5.5303,-5.5354,-5.537,-5.5455,-5.5501,-5.5443,-5.5494,-5.5535,-5.5613,-5.5692,-5.5752,-5.5896,-5.5882,-5.5952,-5.5917,-5.6072,-5.5927,-5.5941,-5.5917,-5.591,-5.592,-5.6101,-5.6106,-5.611,-5.6113,0,-5.5554,-5.5532,-5.5601,-5.5665,-5.5722,-5.5769,-5.5809,-5.5856,-5.58,-5.5862,-5.595,-5.5997,-5.6089,-5.6169,-5.623,-5.6239,-5.6167,-5.6159,-5.6193,-5.6211,-5.622,-5.6215,-5.5747,-5.6148,-5.6145,-5.6142,-5.614,-5.6139,-5.5825,-5.591,-5.5933,-5.6013,-5.6037,-5.6076,-5.6153,-5.6143,-5.6215,-5.6286,-5.6248,-5.635,-5.6375,-5.6449,-5.6469,-5.6548,-5.6486,-5.6536,-5.6548,-5.6561,-5.6578,-5.621,-5.6559,-5.6558,-5.6557,-5.6556,-5.6555,0,-5.6186,-5.6195,-5.6269,-5.6327,-5.639,-5.6317,-5.6357,-5.6414,-5.6504,-5.6534,-5.6595,-5.6695,-5.6772,-5.6765,-5.6835,-5.6899,-5.6867,-5.6919,-5.6913,-5.6916,-5.663,-5.6592,-5.6943,-5.6943,-5.6943,-5.6943,-5.6943,-5.6943,-5.638,-5.652,-5.65,-5.6651,-5.6659,-5.6757,-5.6786,-5.6822,-5.6845,-5.6961,-5.7024,-5.7018,-5.7033,-5.7103,-5.717,-5.7166,-5.7195,-5.7259,-5.7243,-5.6975,-5.6936,-5.69,-5.6864,-5.7266,-5.7267,-5.7522,-5.7524,-5.7526]},{"header":{"parameterUnit":"m.s-1","parameterCategory":1,"la1":30.2991,"la2":30.254,"lo1":-89.0895,"lo2":-89.0444,"dy":0.0017,"dx":0.0017,"nx":28,"ny":28,"refTime":"2023-09-27T21:00:00:Z","depth":0,"parameterNumber":3,"parameterNumberName":"V-component_of_WINDS"},"data":[0,0,0,0,0,0,0,0,0,0,0,0,0,0,0,0,0,0,0,0,0,0,0,0,0,0,0,0,0,0,0,0,0,0,0,0,0,0,0,0,0,0,0,0,0,0,0,0,0,0,0,0,0,0,0,0,0,0,-0.88,-0.88,0,-0.8789,-0.8789,-0.8789,-0.8792,-0.8792,-0.8792,-0.8792,-0.8781,-0.878,-0.878,0,0,0,0,0,0,0,0,0,0,0,0,0,-0.8823,-0.8823,-0.88,-0.88,-0.88,-0.8789,-0.8789,-0.8789,-0.8792,-0.8792,-0.8792,-0.8792,-0.8781,-0.878,-0.878,0,0,0,0,0,0,0,0,0,0,0,0,0,-0.8813,-0.8823,-0.88,-0.88,-0.88,-0.8789,-0.8789,-0.8789,-0.8792,-0.8792,-0.8792,-0.8793,-0.8781,-0.878,-0.878,-0.8768,0,0,-0.8777,-0.8777,0,0,0,0,0,0,0,0,-0.8813,-0.8812,-0.88,-0.88,-0.88,-0.8792,-0.8793,-0.8782,-0.8791,-0.8795,-0.8792,-0.8793,-0.8784,-0.8783,-0.878,-0.8768,-0.8767,-0.8777,-0.8777,-0.8776,-0.8776,0,0,0,0,0,0,0,-0.8814,-0.8812,-0.8796,-0.88,-0.88,-0.88,-0.8799,-0.8791,-0.8788,-0.8795,-0.8795,-0.8793,-0.8784,-0.8781,-0.878,-0.8767,-0.8777,-0.8776,-0.8776,-0.8776,-0.8742,-0.8742,0,0,0,0,0,0,-0.8815,-0.8813,-0.8796,-0.8796,-0.8808,-0.88,-0.8798,-0.8794,-0.8788,-0.8787,-0.8793,-0.8794,-0.8782,-0.8781,-0.878,-0.8764,-0.8776,-0.8776,-0.8775,-0.8742,-0.8742,-0.8742,0,0,0,0,0,0,-0.8816,-0.8814,-0.8797,-0.8804,-0.8802,-0.8799,-0.8794,-0.8794,-0.8791,-0.8787,-0.8786,-0.879,-0.8782,-0.8781,-0.8771,-0.8764,-0.8775,-0.8775,-0.8743,-0.8742,-0.8742,-0.8735,0,0,0,0,0,0,-0.8816,-0.8814,-0.881,-0.8804,-0.8802,-0.8788,-0.8794,-0.8793,-0.8789,-0.879,-0.8784,-0.8784,-0.8783,-0.8772,-0.877,-0.8763,-0.8774,-0.8744,-0.8743,-0.8742,-0.8735,-0.8734,-0.8733,0,0,0,0,0,-0.8817,-0.8809,-0.881,-0.8808,-0.8797,-0.8788,-0.8786,-0.8785,-0.8789,-0.8785,-0.8782,-0.8784,-0.8765,-0.8771,-0.8768,-0.8762,-0.8744,-0.8743,-0.8742,-0.8736,-0.8734,-0.8733,0,0,0,0,0,0,-0.8814,-0.8808,-0.8809,-0.8799,-0.8794,-0.8788,-0.8783,-0.8784,-0.8778,-0.8778,-0.8777,-0.8776,-0.8765,-0.8763,-0.8769,-0.8749,-0.8755,-0.8754,-0.8751,-0.8749,-0.8748,-0.8749,-0.8773,0,0,0,0,0,-0.8812,-0.8805,-0.8801,-0.8792,-0.8789,-0.8786,-0.8782,-0.8782,-0.8777,-0.8775,-0.8771,-0.8766,-0.8759,-0.8754,-0.8747,-0.8735,-0.8733,-0.8729,-0.8728,-0.8727,-0.8725,-0.8717,-0.8715,-0.8738,-0.8738,-0.8738,0,0,-0.8808,-0.8804,-0.88,-0.8791,-0.8787,-0.878,-0.8785,-0.8777,-0.8771,-0.8774,-0.8763,-0.876,-0.8754,-0.8742,-0.8737,-0.874,-0.8718,-0.8725,-0.8725,-0.8724,-0.8716,-0.8713,-0.8711,-0.8738,-0.8738,-0.8738,0,0,-0.8797,-0.8794,-0.8785,-0.8781,-0.8775,-0.8772,-0.877,-0.8764,-0.8762,-0.8752,-0.8753,-0.8746,-0.8734,-0.8729,-0.8725,-0.871,-0.8711,-0.8708,-0.87,-0.8692,-0.869,-0.8688,-0.8682,-0.8679,-0.8707,-0.8707,-0.8707,0,-0.8793,-0.8782,-0.8781,-0.8772,-0.8768,-0.8769,-0.876,-0.8756,-0.8748,-0.8744,-0.8748,-0.8731,-0.8728,-0.8714,-0.871,-0.8707,-0.8704,-0.8709,-0.869,-0.8689,-0.8687,-0.8681,-0.8678,-0.8706,-0.8706,-0.8706,-0.8707,0,-0.8776,-0.8769,-0.8762,-0.8754,-0.8749,-0.874,-0.8737,-0.8732,-0.8731,-0.8728,-0.8717,-0.8712,-0.8704,-0.87,-0.8701,-0.8686,-0.8688,-0.8691,-0.8696,-0.8684,-0.8678,-0.8676,-0.8706,-0.8706,-0.8706,-0.8706,0,0,-0.8764,-0.8753,-0.8751,-0.8746,-0.8739,-0.8733,-0.8723,-0.8715,-0.8709,-0.8703,-0.8695,-0.8684,-0.8686,-0.8681,-0.8681,-0.8674,-0.866,-0.8677,-0.8677,-0.8673,-0.8642,-0.8639,-0.8636,-0.8661,-0.866,-0.866,-0.8642,0,-0.8751,-0.8735,-0.8733,-0.8718,-0.871,-0.871,-0.8702,-0.8696,-0.8693,-0.8685,-0.8681,-0.8673,-0.8677,-0.8674,-0.8667,-0.8663,-0.8653,-0.8664,-0.8652,-0.8651,-0.8652,-0.8633,-0.863,-0.8614,-0.864,-0.8639,-0.8639,0,-0.8734,-0.8727,-0.8711,-0.8703,-0.8699,-0.8692,-0.8683,-0.8676,-0.8668,-0.8666,-0.866,-0.866,-0.8649,-0.8656,-0.864,-0.8648,-0.8642,-0.8639,-0.8639,-0.8637,-0.8644,-0.8629,-0.8608,-0.8605,-0.8635,-0.8636,-0.8636,0,-0.8725,-0.8711,-0.8699,-0.8695,-0.8686,-0.868,-0.8676,-0.8669,-0.8663,-0.8655,-0.8651,-0.8642,-0.8637,-0.863,-0.8627,-0.8632,-0.8611,-0.8617,-0.8608,-0.8608,-0.8603,-0.8603,-0.858,-0.8601,-0.8601,-0.8601,-0.8602,0,-0.871,-0.87,-0.8695,-0.8687,-0.8676,-0.8673,-0.8661,-0.8657,-0.8651,-0.8642,-0.8642,-0.8634,-0.863,-0.8621,-0.8619,-0.8605,-0.8604,-0.8601,-0.86,-0.86,-0.86,-0.8596,-0.8597,-0.8601,-0.8601,-0.8601,-0.8601,0,-0.8698,-0.8694,-0.8681,-0.8672,-0.867,-0.8662,-0.8654,-0.8646,-0.8643,-0.8632,-0.8629,-0.8623,-0.8612,-0.8608,-0.8595,-0.8593,-0.8577,-0.8578,-0.858,-0.8579,-0.8569,-0.857,-0.8541,-0.8537,-0.8563,-0.8563,-0.8562,0,-0.8689,-0.8681,-0.8671,-0.8665,-0.866,-0.8651,-0.8644,-0.8641,-0.8635,-0.8624,-0.8618,-0.8607,-0.8598,-0.858,-0.8574,-0.8564,-0.8564,-0.8554,-0.8562,-0.8562,-0.8562,-0.8562,-0.856,-0.8553,-0.8552,-0.8552,-0.8552,0,-0.8672,-0.867,-0.8661,-0.8651,-0.8643,-0.8635,-0.8627,-0.8622,-0.8617,-0.861,-0.8598,-0.8591,-0.8577,-0.8565,-0.8554,-0.8549,-0.8549,-0.855,-0.8546,-0.8546,-0.8547,-0.8545,-0.8574,-0.855,-0.855,-0.855,-0.8551,-0.8551,-0.866,-0.8653,-0.8644,-0.8633,-0.8627,-0.8619,-0.8611,-0.8605,-0.8596,-0.8584,-0.8582,-0.8569,-0.856,-0.8545,-0.8539,-0.8529,-0.8531,-0.8527,-0.8526,-0.8525,-0.8523,-0.8549,-0.8527,-0.8527,-0.8527,-0.8527,-0.8527,0,-0.8643,-0.8637,-0.8627,-0.8615,-0.8606,-0.8607,-0.8598,-0.859,-0.8579,-0.857,-0.8561,-0.8546,-0.8535,-0.8528,-0.8516,-0.8508,-0.8508,-0.8505,-0.8505,-0.8504,-0.8523,-0.8526,-0.8506,-0.8506,-0.8506,-0.8506,-0.8506,-0.8506,-0.8632,-0.8619,-0.8615,-0.8598,-0.8592,-0.8579,-0.8573,-0.8565,-0.8558,-0.8542,-0.8532,-0.8527,-0.8519,-0.8506,-0.8495,-0.8493,-0.8488,-0.8485,-0.8483,-0.85,-0.8503,-0.8505,-0.8508,-0.8484,-0.8484,-0.8464,-0.8464,-0.8464]}]]